Temp
-30 -30 -30 -30 -30 -30 -29 -29 -29 -28 -27 -26 -26 -26 -25 -25 -25 -25 -25 -25 -25 -24 -23 -23 -22 -22 -22 -21 -21 -20 -20 -20 -19 -19 -19 -18 -18 -18 -18 -17 -18 -18 -18 -18 -18 -17 -16 -16 -16 -17 -17 -17 -17 -17
-31 -30 -30 -30 -30 -30 -30 -30 -29 -28 -27 -27 -26 -25 -25 -26 -25 -25 -25 -25 -25 -24 -23 -23 -22 -22 -22 -21 -21 -20 -20 -20 -20 -19 -19 -19 -18 -18 -18 -18 -18 -18 -18 -18 -18 -18 -18 -18 -18 -18 -18 -17 -17 -17
-31 -30 -30 -30 -30 -30 -30 -30 -29 -28 -27 -27 -26 -26 -25 -25 -25 -25 -25 -25 -25 -25 -24 -23 -22 -22 -21 -21 -21 -20 -20 -20 -20 -20 -20 -20 -19 -19 -19 -19 -19 -19 -19 -19 -19 -18 -18 -18 -18 -18 -18 -18 -18 -18
-31 -31 -31 -30 -30 -30 -30 -30 -29 -28 -27 -27 -26 -25 -25 -25 -25 -25 -25 -25 -25 -24 -24 -23 -23 -22 -22 -22 -21 -21 -20 -20 -21 -21 -20 -20 -20 -20 -19 -19 -19 -19 -19 -19 -19 -19 -19 -19 -19 -19 -19 -19 -19 -19
-31 -31 -31 -30 -30 -30 -30 -30 -29 -28 -27 -26 -25 -25 -25 -25 -25 -26 -25 -25 -25 -24 -24 -24 -23 -23 -22 -22 -22 -21 -21 -21 -21 -21 -21 -21 -20 -20 -20 -20 -20 -20 -20 -20 -20 -20 -20 -20 -20 -20 -20 -20 -20 -19
-31 -31 -31 -30 -30 -30 -30 -30 -29 -28 -27 -26 -26 -25 -25 -25 -25 -25 -25 -25 -25 -25 -25 -24 -24 -24 -23 -22 -22 -21 -21 -21 -21 -21 -21 -21 -21 -21 -20 -20 -20 -20 -21 -22 -22 -22 -21 -21 -21 -20 -20 -20 -20 -20
-31 -31 -31 -30 -30 -30 -29 -29 -29 -28 -27 -26 -25 -25 -25 -25 -25 -24 -25 -26 -26 -25 -25 -24 -24 -24 -23 -23 -23 -22 -22 -22 -22 -22 -21 -21 -21 -21 -20 -20 -20 -21 -22 -22 -22 -22 -22 -22 -21 -21 -20 -20 -20 -20
-31 -31 -30 -30 -30 -30 -29 -29 -29 -28 -27 -26 -25 -25 -25 -25 -25 -25 -26 -26 -26 -26 -25 -25 -24 -24 -24 -23 -23 -23 -23 -22 -22 -22 -22 -22 -21 -21 -20 -21 -22 -21 -22 -22 -22 -22 -21 -21 -21 -21 -21 -21 -21 -21
-31 -31 -30 -30 -30 -29 -29 -30 -28 -27 -27 -27 -26 -26 -25 -25 -25 -25 -25 -26 -26 -25 -26 -26 -25 -24 -24 -23 -23 -23 -23 -23 -23 -23 -23 -23 -23 -23 -22 -22 -22 -22 -22 -22 -22 -22 -22 -22 -22 -22 -22 -22 -22 -21
-30 -30 -30 -30 -30 -29 -29 -29 -28 -27 -26 -26 -26 -26 -26 -25 -25 -26 -26 -26 -26 -26 -26 -26 -26 -25 -24 -24 -24 -24 -24 -24 -24 -24 -24 -24 -25 -24 -22 -22 -22 -22 -22 -22 -22 -22 -22 -22 -22 -22 -22 -22 -22 -22
-30 -30 -30 -30 -29 -28 -29 -29 -28 -27 -27 -26 -26 -25 -26 -26 -26 -26 -25 -25 -26 -26 -27 -26 -26 -26 -25 -25 -25 -26 -26 -26 -26 -26 -25 -25 -25 -24 -24 -23 -23 -23 -23 -23 -23 -23 -22 -22 -22 -22 -22 -22 -22 -22
-30 -30 -30 -30 -29 -28 -28 -28 -28 -27 -27 -26 -26 -26 -26 -26 -25 -25 -25 -25 -26 -26 -26 -27 -27 -26 -26 -26 -26 -26 -26 -26 -26 -26 -25 -25 -25 -25 -24 -24 -24 -24 -23 -23 -23 -22 -22 -22 -23 -23 -24 -24 -24 -24
-30 -30 -30 -29 -29 -29 -28 -28 -27 -27 -27 -27 -26 -26 -26 -25 -25 -24 -24 -25 -25 -26 -26 -26 -27 -26 -26 -26 -26 -26 -26 -26 -26 -25 -25 -25 -25 -25 -25 -24 -24 -25 -24 -24 -24 -24 -24 -24 -24 -25 -25 -25 -25 -25
-30 -30 -30 -29 -29 -29 -28 -28 -29 -28 -27 -27 -27 -26 -25 -25 -25 -25 -26 -26 -26 -26 -26 -26 -26 -26 -26 -26 -26 -26 -26 -26 -26 -26 -26 -26 -26 -25 -25 -25 -25 -25 -25 -25 -25 -25 -25 -26 -26 -27 -26 -26 -26 -26
-30 -31 -30 -29 -29 -28 -28 -28 -28 -27 -27 -27 -26 -26 -25 -25 -26 -26 -26 -26 -26 -26 -26 -26 -26 -26 -26 -26 -26 -26 -26 -26 -26 -26 -26 -26 -26 -26 -26 -26 -26 -26 -26 -27 -28 -28 -28 -29 -29 -29 -28 -29 -28 -27
-30 -30 -29 -28 -28 -28 -28 -28 -28 -27 -27 -26 -26 -25 -25 -26 -26 -26 -25 -25 -26 -26 -26 -26 -26 -26 -26 -26 -26 -26 -27 -27 -27 -27 -27 -27 -27 -27 -26 -26 -26 -27 -27 -27 -28 -29 -29 -29 -29 -29 -30 -29 -28 -28
-30 -29 -28 -28 -29 -28 -28 -28 -28 -27 -27 -26 -26 -25 -26 -26 -26 -26 -26 -26 -26 -26 -26 -26 -26 -26 -26 -26 -27 -27 -27 -27 -27 -27 -27 -27 -27 -27 -27 -27 -27 -27 -27 -27 -27 -28 -28 -29 -29 -29 -29 -29 -28 -28
-30 -29 -29 -29 -28 -28 -28 -28 -28 -27 -27 -26 -26 -26 -26 -26 -26 -26 -26 -26 -26 -26 -26 -26 -27 -27 -27 -27 -27 -27 -27 -27 -27 -28 -28 -28 -27 -27 -27 -27 -27 -27 -27 -27 -27 -27 -28 -28 -29 -29 -29 -29 -28 -28
-31 -29 -29 -29 -28 -28 -28 -28 -28 -27 -27 -27 -27 -27 -27 -26 -26 -27 -27 -26 -26 -26 -26 -27 -27 -27 -27 -27 -27 -27 -27 -27 -27 -27 -28 -27 -27 -27 -27 -27 -27 -27 -27 -26 -27 -27 -27 -28 -29 -29 -29 -29 -28 -28
-31 -29 -29 -29 -28 -28 -28 -27 -27 -27 -27 -27 -27 -27 -27 -27 -27 -27 -27 -26 -26 -26 -26 -27 -27 -27 -27 -27 -27 -27 -27 -27 -27 -27 -28 -28 -28 -28 -27 -27 -27 -27 -27 -26 -26 -26 -27 -28 -28 -29 -29 -29 -29 -28
-30 -29 -29 -29 -29 -28 -28 -27 -27 -27 -27 -27 -27 -27 -27 -27 -27 -27 -27 -26 -26 -27 -27 -27 -27 -27 -27 -27 -27 -27 -27 -28 -28 -28 -28 -28 -27 -27 -27 -27 -27 -27 -27 -26 -26 -27 -27 -27 -28 -29 -29 -29 -28 -28
-30 -30 -30 -29 -29 -29 -28 -28 -28 -28 -28 -28 -28 -27 -27 -27 -27 -27 -26 -26 -27 -27 -27 -27 -27 -27 -27 -27 -27 -28 -28 -28 -28 -28 -28 -28 -27 -27 -27 -27 -27 -26 -27 -27 -27 -27 -28 -28 -28 -28 -28 -28 -29 -28
-30 -30 -30 -30 -30 -29 -29 -28 -28 -29 -28 -28 -28 -27 -27 -27 -27 -27 -27 -26 -27 -28 -27 -27 -27 -27 -27 -28 -28 -28 -28 -28 -28 -28 -28 -28 -28 -28 -27 -27 -26 -26 -26 -27 -27 -27 -28 -28 -28 -29 -29 -29 -29 -29
-30 -30 -30 -29 -30 -29 -29 -29 -28 -28 -28 -28 -28 -28 -28 -28 -27 -27 -27 -27 -28 -28 -28 -28 -27 -28 -28 -28 -28 -28 -28 -28 -28 -28 -28 -28 -27 -27 -27 -27 -27 -27 -27 -26 -27 -27 -28 -28 -29 -29 -29 -29 -30 -29
-30 -30 -29 -29 -29 -29 -29 -28 -28 -28 -27 -27 -27 -27 -27 -27 -27 -27 -27 -28 -28 -28 -28 -28 -28 -28 -28 -28 -28 -28 -28 -28 -28 -27 -27 -27 -27 -27 -27 -27 -27 -27 -27 -27 -27 -27 -28 -28 -29 -29 -29 -29 -29 -28
-30 -30 -29 -29 -29 -29 -28 -28 -28 -28 -28 -28 -28 -28 -28 -27 -27 -27 -27 -28 -28 -28 -28 -28 -28 -28 -28 -28 -28 -28 -28 -27 -27 -27 -27 -27 -27 -27 -26 -26 -26 -27 -27 -26 -27 -27 -28 -28 -28 -29 -29 -29 -28 -27
-30 -30 -29 -29 -29 -29 -29 -28 -28 -28 -28 -28 -28 -28 -28 -28 -27 -28 -28 -28 -28 -28 -28 -28 -28 -28 -28 -28 -28 -28 -28 -27 -27 -27 -27 -27 -27 -26 -26 -26 -26 -26 -27 -27 -27 -26 -26 -26 -27 -27 -27 -27 -27 -26
-30 -30 -29 -29 -29 -29 -29 -29 -29 -28 -28 -28 -28 -28 -28 -28 -28 -28 -28 -28 -28 -28 -28 -28 -28 -28 -28 -28 -28 -28 -28 -27 -27 -27 -27 -27 -27 -26 -26 -26 -26 -27 -26 -26 -25 -25 -25 -25 -25 -25 -25 -26 -26 -26
-30 -31 -30 -30 -29 -29 -29 -28 -28 -28 -28 -28 -28 -28 -29 -29 -28 -28 -28 -28 -28 -28 -28 -28 -28 -28 -28 -28 -28 -28 -27 -27 -27 -27 -26 -26 -26 -27 -27 -27 -26 -25 -24 -24 -25 -25 -25 -25 -25 -25 -25 -25 -25 -25
-30 -30 -29 -29 -29 -29 -29 -28 -28 -28 -29 -29 -29 -29 -29 -28 -28 -28 -28 -28 -28 -28 -28 -28 -28 -28 -28 -28 -28 -28 -28 -27 -26 -26 -26 -26 -26 -26 -26 -26 -25 -25 -25 -25 -25 -25 -24 -24 -24 -24 -24 -24 -24 -24
-29 -29 -29 -29 -29 -29 -29 -29 -29 -29 -29 -29 -29 -28 -28 -28 -29 -28 -28 -28 -29 -28 -28 -29 -28 -28 -28 -28 -27 -27 -27 -27 -26 -26 -26 -26 -26 -26 -25 -25 -25 -24 -24 -24 -24 -24 -24 -23 -23 -22 -23 -23 -24 -24
-29 -29 -29 -29 -29 -29 -29 -29 -29 -29 -29 -29 -29 -29 -29 -29 -29 -29 -29 -29 -29 -29 -29 -28 -28 -28 -28 -28 -27 -27 -26 -26 -26 -26 -26 -25 -25 -25 -25 -24 -24 -24 -24 -24 -24 -24 -23 -22 -22 -23 -23 -23 -23 -23
-29 -29 -29 -29 -29 -29 -29 -29 -29 -29 -29 -29 -29 -29 -29 -29 -29 -29 -29 -29 -29 -29 -28 -28 -28 -28 -28 -27 -27 -26 -26 -26 -25 -25 -25 -25 -25 -24 -24 -24 -24 -24 -24 -24 -24 -23 -23 -23 -23 -23 -23 -23 -23 -23
Height
5406 5407 5408 5409 5410 5411 5412 5413 5415 5418 5422 5429 5438 5448 5460 5473 5482 5492 5499 5508 5517 5525 5532 5539 5549 5558 5565 5575 5584 5593 5597 5601 5610 5616 5622 5629 5635 5641 5649 5655 5659 5664 5666 5668 5672 5672 5674 5677 5682 5685 5686 5691 5694 5695
5397 5399 5400 5402 5404 5406 5407 5409 5411 5414 5419 5426 5436 5446 5457 5470 5480 5489 5497 5505 5513 5520 5527 5534 5542 5552 5561 5569 5577 5581 5589 5595 5602 5608 5614 5620 5626 5632 5639 5644 5647 5651 5653 5656 5661 5662 5662 5665 5666 5668 5671 5674 5678 5680
5389 5391 5393 5395 5398 5401 5403 5405 5407 5411 5416 5424 5434 5444 5455 5468 5479 5488 5495 5502 5508 5516 5523 5530 5537 5546 5552 5560 5567 5574 5582 5588 5593 5600 5606 5611 5615 5624 5628 5633 5636 5637 5642 5644 5647 5649 5649 5652 5655 5658 5659 5662 5665 5668
5381 5383 5386 5389 5392 5396 5399 5401 5403 5407 5414 5421 5431 5443 5457 5468 5477 5485 5492 5499 5504 5513 5521 5526 5531 5540 5547 5554 5562 5567 5573 5577 5584 5590 5596 5602 5608 5612 5617 5622 5626 5627 5631 5634 5633 5636 5637 5640 5642 5646 5647 5652 5655 5656
5373 5376 5379 5382 5386 5391 5394 5398 5401 5405 5411 5419 5429 5441 5454 5465 5474 5482 5489 5496 5502 5510 5516 5523 5528 5535 5541 5548 5551 5556 5565 5572 5577 5584 5590 5595 5599 5604 5608 5613 5616 5617 5620 5621 5621 5623 5626 5629 5632 5635 5636 5638 5639 5640
5367 5370 5373 5377 5381 5386 5389 5393 5398 5403 5409 5418 5429 5441 5452 5462 5470 5479 5488 5496 5500 5505 5512 5518 5524 5530 5535 5542 5548 5553 5560 5566 5571 5576 5581 5585 5588 5593 5597 5603 5605 5607 5608 5609 5612 5613 5614 5615 5616 5621 5624 5625 5625 5626
5361 5364 5368 5372 5377 5380 5384 5389 5395 5400 5409 5417 5428 5441 5451 5461 5471 5479 5488 5494 5497 5501 5506 5512 5518 5524 5530 5536 5541 5547 5553 5558 5564 5567 5571 5575 5579 5583 5588 5594 5594 5594 5594 5597 5600 5603 5604 5606 5606 5607 5608 5610 5611 5612
5355 5359 5364 5368 5372 5376 5381 5386 5393 5400 5408 5417 5428 5441 5451 5460 5469 5478 5484 5489 5494 5498 5502 5508 5514 5521 5527 5532 5538 5542 5546 5550 5554 5558 5562 5565 5569 5572 5578 5580 5578 5581 5584 5585 5585 5590 5592 5593 5594 5594 5595 5595 5596 5597
5352 5356 5360 5364 5368 5374 5379 5385 5393 5400 5409 5418 5430 5440 5448 5459 5469 5476 5483 5487 5491 5495 5498 5503 5508 5515 5520 5525 5530 5535 5539 5543 5546 5549 5553 5557 5558 5560 5563 5566 5569 5571 5570 5572 5574 5577 5577 5577 5578 5579 5579 5579 5579 5579
5350 5353 5357 5362 5366 5372 5379 5386 5394 5404 5412 5420 5428 5437 5447 5459 5468 5476 5481 5484 5487 5489 5493 5497 5503 5509 5516 5520 5524 5531 5534 5537 5540 5543 5545 5548 5546 5550 5554 5557 5558 5558 5559 5560 5560 5561 5562 5562 5562 5563 5563 5563 5563 5562
5348 5351 5355 5360 5366 5372 5381 5387 5395 5403 5413 5421 5431 5441 5451 5460 5467 5474 5477 5480 5483 5486 5490 5495 5500 5505 5511 5517 5522 5527 5530 5534 5537 5540 5541 5541 5539 5543 5545 5547 5547 5547 5548 5548 5547 5548 5548 5548 5548 5546 5545 5545 5544 5543
5346 5350 5354 5359 5367 5376 5383 5391 5399 5407 5417 5426 5435 5444 5452 5459 5465 5471 5475 5478 5481 5486 5490 5495 5500 5505 5512 5517 5522 5527 5530 5533 5534 5535 5535 5534 5536 5536 5536 5536 5536 5535 5534 5533 5533 5532 5532 5532 5531 5529 5527 5526 5525 5524
5344 5350 5355 5360 5370 5377 5386 5393 5401 5408 5417 5426 5435 5444 5452 5460 5466 5470 5473 5477 5481 5485 5491 5497 5501 5508 5512 5518 5521 5525 5528 5530 5530 5529 5528 5528 5527 5526 5526 5525 5525 5524 5522 5520 5519 5518 5517 5516 5514 5512 5511 5509 5509 5509
5343 5349 5354 5362 5371 5377 5385 5391 5398 5407 5417 5428 5438 5446 5454 5462 5469 5473 5477 5481 5486 5491 5494 5498 5504 5509 5513 5517 5520 5523 5524 5524 5523 5522 5521 5519 5518 5518 5517 5515 5513 5511 5508 5505 5503 5502 5501 5499 5499 5497 5495 5494 5495 5495
5344 5350 5356 5365 5373 5381 5388 5393 5401 5409 5418 5429 5439 5448 5456 5464 5470 5472 5475 5481 5487 5492 5497 5501 5505 5509 5512 5515 5517 5519 5519 5519 5518 5517 5514 5512 5511 5510 5508 5506 5504 5501 5498 5495 5493 5491 5489 5488 5487 5486 5483 5481 5481 5482
5346 5351 5360 5370 5377 5383 5390 5397 5404 5412 5421 5432 5441 5449 5457 5465 5470 5474 5477 5482 5488 5492 5495 5500 5503 5507 5510 5513 5514 5514 5514 5513 5512 5510 5508 5505 5503 5501 5499 5497 5495 5492 5489 5486 5483 5481 5480 5477 5475 5473 5470 5468 5468 5469
5347 5354 5362 5371 5378 5386 5393 5401 5408 5415 5424 5432 5442 5449 5458 5464 5470 5475 5480 5484 5489 5493 5495 5499 5502 5505 5507 5509 5510 5509 5509 5508 5505 5502 5500 5497 5495 5493 5491 5490 5487 5484 5480 5477 5474 5472 5469 5467 5465 5463 5460 5459 5458 5458
5351 5357 5364 5373 5381 5388 5395 5402 5410 5416 5425 5433 5442 5450 5457 5463 5469 5474 5478 5483 5488 5491 5494 5497 5500 5502 5504 5505 5506 5506 5505 5504 5502 5499 5497 5493 5491 5489 5485 5481 5478 5474 5470 5467 5463 5461 5458 5456 5454 5452 5450 5449 5449 5448
5354 5360 5368 5376 5384 5391 5397 5404 5411 5419 5427 5435 5443 5449 5456 5462 5467 5472 5477 5481 5485 5488 5491 5494 5497 5499 5501 5502 5502 5502 5501 5500 5498 5495 5491 5487 5483 5480 5476 5473 5470 5465 5460 5456 5453 5449 5447 5445 5444 5442 5441 5440 5438 5438
5355 5363 5371 5379 5386 5392 5400 5408 5412 5419 5426 5434 5441 5447 5453 5460 5465 5470 5475 5479 5483 5486 5489 5492 5494 5495 5497 5497 5497 5496 5495 5493 5491 5489 5485 5480 5475 5473 5470 5465 5462 5457 5452 5448 5444 5441 5438 5435 5434 5431 5429 5427 5426 5426
5360 5368 5375 5382 5388 5396 5404 5410 5416 5422 5429 5435 5440 5446 5452 5457 5462 5467 5472 5475 5479 5483 5486 5488 5488 5491 5492 5492 5491 5490 5489 5486 5483 5479 5476 5474 5471 5466 5462 5457 5453 5449 5444 5440 5435 5432 5428 5424 5422 5419 5417 5416 5415 5415
5365 5371 5378 5385 5392 5398 5406 5412 5419 5424 5429 5433 5439 5444 5449 5455 5460 5464 5468 5471 5475 5479 5481 5482 5485 5486 5486 5486 5484 5483 5482 5479 5475 5472 5468 5463 5460 5457 5453 5448 5443 5440 5436 5431 5427 5424 5420 5417 5414 5412 5410 5409 5407 5406
5370 5374 5380 5386 5392 5399 5406 5412 5417 5421 5427 5432 5437 5443 5448 5453 5457 5461 5465 5469 5473 5474 5476 5479 5480 5480 5480 5479 5478 5476 5473 5471 5468 5465 5461 5455 5451 5448 5443 5440 5435 5430 5427 5423 5418 5416 5414 5411 5408 5406 5404 5402 5399 5398
5373 5377 5381 5386 5393 5400 5406 5412 5417 5422 5427 5433 5437 5442 5446 5451 5454 5458 5462 5466 5468 5468 5471 5472 5473 5474 5473 5473 5472 5470 5466 5461 5459 5457 5452 5446 5443 5440 5436 5431 5426 5421 5416 5413 5409 5406 5405 5403 5400 5397 5394 5391 5389 5386
5376 5380 5385 5390 5397 5404 5410 5415 5420 5424 5428 5433 5437 5442 5445 5449 5453 5457 5460 5460 5462 5463 5464 5466 5467 5467 5466 5465 5464 5461 5457 5452 5449 5447 5446 5438 5433 5429 5426 5423 5418 5412 5405 5402 5400 5397 5395 5394 5391 5388 5385 5382 5378 5375
5377 5383 5390 5394 5400 5406 5410 5415 5420 5424 5429 5433 5437 5441 5444 5447 5450 5453 5454 5456 5457 5459 5459 5459 5459 5458 5457 5456 5454 5452 5449 5444 5438 5435 5434 5429 5424 5419 5416 5413 5409 5405 5396 5392 5390 5388 5386 5383 5381 5379 5376 5373 5370 5367
5380 5387 5393 5399 5403 5408 5412 5416 5420 5425 5429 5433 5436 5439 5442 5445 5447 5449 5450 5451 5452 5453 5453 5452 5451 5449 5448 5447 5444 5441 5437 5432 5428 5424 5422 5420 5415 5410 5406 5403 5400 5396 5392 5387 5383 5380 5378 5375 5372 5370 5367 5365 5362 5360
5382 5388 5395 5401 5405 5408 5412 5416 5420 5424 5428 5432 5434 5436 5439 5440 5442 5444 5445 5446 5446 5446 5445 5444 5442 5440 5438 5435 5431 5427 5424 5420 5417 5414 5412 5410 5405 5401 5397 5393 5390 5386 5383 5380 5377 5374 5371 5367 5364 5361 5358 5355 5353 5351
5383 5388 5393 5399 5404 5409 5413 5417 5421 5424 5427 5429 5431 5432 5434 5435 5437 5438 5439 5438 5438 5438 5437 5435 5431 5428 5424 5420 5416 5412 5409 5407 5405 5405 5403 5402 5399 5394 5389 5386 5382 5378 5376 5374 5371 5367 5363 5358 5354 5349 5346 5342 5339 5336
5385 5390 5395 5401 5406 5410 5413 5416 5419 5422 5424 5426 5427 5428 5429 5430 5430 5430 5430 5430 5429 5426 5423 5419 5417 5414 5412 5409 5406 5403 5399 5396 5394 5395 5395 5394 5391 5388 5384 5380 5378 5375 5372 5369 5365 5361 5356 5351 5347 5342 5338 5333 5329 5325
5388 5393 5397 5401 5405 5408 5412 5414 5416 5418 5420 5421 5422 5423 5423 5423 5422 5420 5419 5418 5416 5413 5410 5408 5405 5402 5400 5399 5397 5396 5394 5391 5389 5388 5386 5385 5382 5380 5378 5376 5374 5371 5367 5363 5359 5355 5351 5348 5345 5342 5338 5333 5326 5322
5391 5394 5398 5402 5406 5408 5409 5411 5413 5414 5415 5416 5416 5415 5415 5415 5414 5412 5411 5408 5406 5404 5401 5399 5397 5395 5393 5392 5390 5389 5388 5386 5384 5382 5380 5379 5378 5377 5375 5372 5369 5366 5363 5359 5355 5352 5350 5348 5346 5344 5341 5337 5332 5327
5391 5394 5397 5400 5402 5404 5406 5408 5409 5409 5410 5409 5409 5408 5407 5407 5406 5405 5403 5401 5400 5398 5396 5394 5392 5390 5388 5386 5384 5383 5382 5381 5379 5379 5378 5377 5376 5374 5371 5369 5367 5364 5361 5358 5355 5352 5351 5349 5347 5345 5342 5340 5337 5334
Wind_Speed
26 25 23 21 19 20 17 16 17 20 26 32 41 54 55 45 53 45 37 33 43 34 42 42 42 41 39 39 41 45 46 44 43 45 48 50 53 53 51 52 54 54 54 55 55 57 59 56 52 49 49 45 47 49
25 24 22 22 20 18 14 15 16 21 26 34 41 46 51 57 37 35 33 34 39 40 35 42 42 39 31 33 32 40 48 47 42 43 42 44 47 48 48 49 49 51 53 53 52 52 53 51 52 53 52 51 50 51
24 23 22 21 20 18 12 13 15 21 28 34 43 51 47 41 42 35 36 36 40 43 30 34 42 42 42 37 42 37 37 39 42 42 40 40 39 39 42 44 44 48 48 49 49 51 53 54 53 51 48 46 42 40
23 23 22 21 20 19 17 14 16 22 28 34 43 57 52 46 47 38 34 29 34 43 31 26 30 44 36 31 39 37 39 44 45 40 38 38 39 39 40 41 42 44 45 47 49 50 52 51 51 48 47 43 42 43
22 23 22 20 19 18 20 18 17 23 28 36 41 52 58 38 41 35 30 29 29 38 37 28 30 27 40 40 41 45 45 43 42 41 40 40 38 39 41 40 40 42 42 44 47 48 47 47 45 44 44 44 45 45
21 22 22 20 18 17 20 24 20 24 30 36 50 58 53 42 44 41 30 25 25 30 33 34 32 36 36 40 42 41 44 47 48 45 43 41 40 41 41 40 41 41 43 44 45 46 47 48 49 48 47 48 50 50
20 21 21 19 17 17 20 23 22 26 32 37 47 53 50 45 38 28 25 22 20 21 24 26 32 31 36 39 39 41 43 43 41 41 41 40 40 41 39 38 40 43 44 46 48 49 50 51 52 53 53 53 53 53
19 19 18 19 18 17 21 23 25 28 31 37 55 50 44 40 33 31 27 23 20 19 20 26 27 29 34 32 30 33 37 39 38 38 39 39 40 41 40 41 42 45 46 46 48 50 51 52 54 55 55 55 55 54
15 15 18 19 18 24 23 32 36 39 36 37 42 41 42 38 37 31 28 24 23 23 21 22 28 28 27 28 28 32 32 32 33 34 34 34 35 37 41 43 44 46 48 49 50 50 52 53 53 53 54 56 58 60
13 15 19 20 19 33 41 37 42 37 45 47 43 46 45 41 37 33 26 25 24 22 21 22 26 25 25 25 24 24 23 21 21 22 22 24 25 32 36 38 39 41 42 43 44 45 46 47 49 52 54 55 56 58
13 16 20 23 32 43 43 45 40 39 40 42 45 42 40 38 36 32 28 25 22 20 21 21 24 22 23 22 18 14 11 10 9 11 15 17 23 25 27 31 34 38 38 40 42 44 47 49 50 52 54 55 57 58
15 19 22 24 43 37 40 42 42 40 39 38 40 41 39 38 33 29 23 19 17 19 20 23 24 25 23 20 18 14 11 7 5 9 15 19 21 24 27 29 32 36 39 41 43 45 47 49 51 51 51 52 52 53
18 22 24 35 41 39 41 36 39 44 47 45 43 37 37 35 33 27 19 18 17 21 25 27 26 23 22 18 13 9 4 4 8 11 12 14 16 19 21 25 28 30 34 39 42 45 47 48 48 48 48 49 48 45
21 23 26 49 46 38 37 39 35 36 40 49 44 37 34 32 25 19 22 24 22 25 26 25 22 18 15 12 8 4 4 10 14 14 14 15 16 18 20 23 25 28 31 34 36 39 40 43 45 46 48 46 42 38
23 23 39 51 43 42 42 36 39 44 50 49 45 38 34 30 24 28 31 28 27 26 21 19 17 13 9 7 4 5 11 15 16 16 16 15 16 18 20 22 24 24 25 25 36 42 43 46 40 38 43 41 40 35
25 29 52 54 45 43 43 40 40 45 47 49 43 39 35 28 25 26 26 24 25 25 23 18 13 11 8 6 5 9 13 16 19 22 21 19 18 20 21 21 24 26 26 27 28 36 40 42 43 43 33 35 32 33
26 39 47 44 41 45 43 36 33 38 47 49 46 41 36 29 23 20 20 20 19 20 15 13 13 11 8 5 7 11 15 20 23 24 26 25 26 27 26 24 24 27 29 30 29 28 29 34 37 31 31 31 29 29
30 38 42 41 41 46 43 37 34 36 44 48 45 38 33 30 27 24 25 24 21 16 14 12 13 11 8 9 9 12 17 20 22 22 22 23 23 26 28 30 31 34 36 34 35 31 29 30 31 32 33 33 29 29
30 42 43 45 45 45 42 40 38 36 39 46 39 34 35 31 26 27 26 24 22 20 16 14 15 12 13 12 12 15 17 19 24 25 26 28 27 28 31 32 34 34 33 32 31 33 33 31 31 35 36 37 35 31
25 49 41 44 48 46 44 44 44 43 41 41 40 36 34 32 29 26 24 25 22 21 18 16 15 17 14 14 16 18 19 23 25 25 28 29 31 30 32 35 33 31 30 29 31 30 27 26 24 27 28 29 33 35
26 42 42 39 43 43 44 39 38 38 35 32 35 34 28 30 28 25 25 25 20 18 18 21 22 16 15 17 19 21 23 26 29 31 33 32 33 32 32 34 35 32 31 31 31 31 32 31 27 29 31 28 29 32
27 33 32 31 34 31 36 37 33 30 28 25 31 36 34 31 29 27 25 24 19 22 25 25 20 17 17 19 22 23 25 27 31 33 37 38 38 36 35 35 37 38 36 34 33 29 25 24 24 22 19 18 22 25
28 29 36 34 34 33 30 33 32 29 26 26 25 27 27 26 25 25 23 20 22 26 27 23 21 21 19 21 23 25 28 32 35 38 41 41 40 40 41 39 39 40 41 39 35 27 24 24 26 26 25 25 27 27
29 30 36 36 30 32 28 27 31 28 29 28 27 29 27 26 27 27 25 23 26 28 25 25 25 23 22 23 25 28 31 37 39 38 40 42 41 39 40 41 42 43 44 37 32 27 24 25 26 25 26 28 31 31
27 28 28 28 28 26 26 26 23 21 25 27 29 28 30 29 28 26 25 23 26 27 28 27 26 25 25 27 30 32 35 39 41 41 38 40 41 39 37 40 41 39 40 38 31 21 21 24 25 26 27 28 29 28
31 30 26 23 25 25 24 24 23 23 24 28 30 28 30 29 28 25 22 21 23 25 27 27 28 29 32 35 37 37 37 41 44 46 40 40 41 39 38 39 37 34 38 36 31 22 19 21 25 28 30 31 30 26
27 32 29 26 21 21 23 24 24 23 24 25 25 28 28 25 22 24 24 23 24 25 27 29 31 35 37 38 39 39 40 43 46 47 41 38 36 38 38 37 34 32 31 28 26 23 21 22 24 27 28 27 27 26
22 25 35 30 21 17 21 24 25 24 23 22 20 20 22 24 24 24 24 25 26 28 31 35 38 40 38 40 42 44 45 47 47 43 38 33 35 36 37 37 36 38 28 20 21 24 27 29 29 29 30 30 29 30
23 22 31 31 23 19 18 18 17 15 14 14 15 15 18 22 25 27 28 29 31 33 35 37 39 41 44 45 47 46 45 44 39 34 32 29 30 31 34 35 38 27 19 21 24 28 30 30 31 31 31 31 31 31
23 22 24 25 23 16 13 14 15 16 15 14 14 16 18 21 24 27 29 31 34 36 37 36 34 33 32 31 32 33 34 33 32 30 26 25 24 25 28 31 23 19 21 26 28 28 27 28 28 25 21 19 18 18
19 20 20 19 17 15 14 12 12 12 13 14 17 19 22 25 27 30 33 34 32 29 29 30 29 26 23 22 22 22 22 26 27 27 26 24 22 18 14 14 17 22 23 23 23 22 21 16 13 13 18 20 17 14
18 17 17 15 15 15 13 13 14 15 16 18 20 24 29 31 30 29 26 26 27 28 28 27 24 21 20 19 18 18 18 19 21 22 23 16 9 10 14 18 19 19 19 18 16 16 11 10 9 10 14 19 21 20
17 16 14 12 14 15 15 17 18 18 21 23 24 24 20 17 18 18 20 20 17 17 19 20 20 21 21 21 19 16 16 14 10 4 4 8 11 13 14 15 14 13 12 12 15 11 11 11 8 10 11 12 14 17
Wind_Direction
259 259 257 239 241 248 260 246 235 217 208 201 193 190 191 191 195 196 187 194 196 205 207 210 206 207 208 215 211 209 223 223 225 226 227 229 229 230 230 232 235 239 244 245 246 249 252 256 257 258 263 262 261 262
252 255 246 234 238 245 250 245 228 209 204 197 191 194 196 197 197 203 200 206 202 208 209 210 206 206 208 213 216 217 216 226 229 230 227 229 232 233 233 233 237 239 242 245 249 253 256 259 260 262 264 263 264 265
245 249 237 230 234 235 238 237 218 204 198 194 188 181 185 196 196 194 199 206 207 209 215 213 205 203 205 212 210 229 216 226 230 231 232 234 235 234 236 236 236 240 243 247 251 254 256 260 263 265 265 266 264 264
239 240 230 228 230 230 226 223 207 199 195 192 191 192 196 193 197 193 193 196 205 209 204 204 203 209 205 205 216 220 220 222 224 229 229 231 235 237 237 239 241 245 249 252 253 254 258 259 262 264 264 266 265 267
235 232 224 223 225 225 218 219 205 195 190 190 187 185 183 182 185 187 186 194 209 211 218 197 192 208 202 210 209 200 222 223 223 225 234 241 241 242 242 242 244 245 249 250 252 254 256 259 260 262 267 269 269 267
232 226 219 218 221 219 217 209 202 192 189 187 185 182 183 187 180 187 190 207 219 219 223 214 203 207 205 206 212 211 222 230 235 239 240 242 244 244 244 245 248 248 245 244 246 250 256 259 259 261 262 264 265 263
224 221 214 213 214 214 206 200 197 189 182 184 181 179 173 174 179 182 189 193 202 202 204 208 214 207 214 220 219 218 227 235 239 240 241 243 244 246 247 250 250 246 246 247 248 249 251 254 258 261 263 263 262 262
217 216 206 206 205 204 194 192 178 175 174 178 178 173 179 182 184 190 191 201 213 218 215 208 209 213 219 221 225 228 232 235 238 240 241 243 248 248 248 245 245 248 248 250 254 255 255 256 259 260 262 263 265 266
210 205 199 197 198 177 181 167 158 151 158 160 170 173 183 188 191 193 204 209 219 228 227 217 204 210 219 220 226 231 231 233 238 239 243 245 246 247 245 249 250 252 254 257 257 257 258 259 260 260 261 261 261 262
197 195 191 188 185 169 156 156 153 146 155 156 164 172 180 183 187 197 207 220 227 227 219 207 200 192 204 210 218 223 224 227 235 238 241 246 247 247 249 252 255 256 256 257 258 259 260 259 257 257 258 259 261 262
190 188 182 180 173 161 154 153 157 157 165 158 162 164 169 176 187 200 210 215 210 197 188 190 180 170 181 181 182 181 181 196 214 229 245 248 257 260 259 256 257 257 258 258 257 258 260 262 263 263 264 264 264 265
184 177 179 175 172 157 160 154 161 150 157 153 158 163 172 179 182 187 179 175 178 176 174 171 159 153 151 151 151 156 165 180 236 258 256 255 259 259 260 262 263 264 265 265 265 264 263 264 264 266 268 269 270 271
177 172 171 176 156 153 146 149 156 158 164 162 163 163 166 170 174 174 158 149 155 167 160 145 143 149 150 154 152 158 175 280 315 306 292 275 270 268 269 269 268 271 269 268 265 265 267 269 269 268 267 266 266 267
176 171 169 170 164 160 162 157 160 168 171 167 168 171 172 175 164 127 128 131 137 145 146 145 148 155 163 165 173 192 309 326 328 323 312 301 289 285 287 292 293 289 281 275 270 269 266 266 270 269 266 266 266 264
169 168 166 170 167 163 162 161 167 168 170 172 169 173 179 174 150 148 147 150 159 163 161 160 163 176 181 199 232 306 331 334 334 329 323 313 303 297 296 301 306 306 299 289 258 259 262 273 276 279 283 279 271 262
163 162 160 169 165 161 162 156 160 167 172 172 171 177 181 169 165 162 161 162 167 169 172 177 186 200 215 225 280 329 332 340 339 340 332 322 316 316 310 308 308 310 310 305 289 265 269 272 283 286 275 273 267 263
160 167 166 166 167 165 157 154 159 164 168 172 178 185 186 175 171 171 178 175 177 178 175 188 206 216 213 245 305 318 329 338 337 335 330 324 323 323 317 311 307 306 306 304 301 291 280 275 277 277 271 267 268 263
167 174 172 162 163 165 163 163 165 167 175 178 183 187 180 179 180 181 179 178 184 186 195 214 219 210 227 264 291 305 325 331 331 331 320 310 307 311 315 316 314 312 308 302 299 299 297 286 277 277 276 274 273 265
158 176 168 168 170 170 171 166 159 162 171 177 177 186 185 187 186 185 185 189 194 198 213 219 214 215 239 262 282 302 314 321 326 328 325 319 310 315 323 318 316 311 308 306 300 295 292 292 288 279 276 275 276 274
155 167 160 171 173 172 172 171 165 163 167 174 181 186 190 192 192 193 196 201 210 219 226 218 210 229 242 261 282 297 308 315 320 323 325 326 317 313 313 315 317 314 309 307 305 301 294 288 288 286 282 274 270 270
166 175 175 163 162 169 174 173 169 168 174 180 186 182 179 191 193 195 202 208 218 222 204 208 225 234 248 269 281 296 309 310 315 322 324 322 315 307 308 316 315 318 315 309 307 311 304 296 283 273 271 269 268 269
164 158 155 168 169 165 175 176 181 184 180 176 183 185 184 191 198 204 205 214 212 202 209 220 231 241 255 275 289 304 309 306 315 319 319 319 317 312 308 313 315 313 313 311 307 314 308 302 303 298 296 293 285 275
168 177 170 162 167 171 175 180 175 168 169 176 178 187 196 199 201 207 212 210 202 207 218 227 239 253 268 284 296 301 303 304 310 314 315 314 314 310 305 307 312 310 310 313 310 303 302 305 305 300 292 289 292 289
164 172 169 171 176 182 180 188 189 185 189 192 187 181 184 193 199 202 198 203 205 216 226 237 249 263 281 289 292 295 297 306 311 313 312 309 306 301 299 305 310 311 309 311 306 300 296 299 305 298 296 298 297 295
164 163 167 175 189 195 199 195 193 203 208 209 206 204 199 201 203 205 205 206 213 225 236 247 260 273 279 285 291 293 299 307 307 306 306 302 304 302 299 302 307 310 306 306 309 300 295 293 300 305 308 311 309 304
179 171 165 165 173 180 189 197 200 201 203 207 209 211 206 203 206 207 218 222 229 239 248 259 267 276 284 289 295 294 299 299 300 303 304 301 301 298 298 300 305 309 304 306 307 298 293 298 303 306 308 307 305 299
180 179 171 166 165 179 189 195 197 198 201 205 211 212 209 214 224 230 235 241 247 253 260 268 278 286 290 292 292 295 296 294 294 297 299 300 296 296 297 300 306 310 312 306 300 298 295 297 299 298 297 296 294 293
180 180 180 181 184 182 182 185 190 196 201 210 219 224 228 234 240 244 250 253 260 270 278 282 284 285 286 289 291 289 287 286 288 294 297 298 297 298 298 302 309 312 314 305 301 301 302 301 300 298 296 293 290 287
169 175 180 180 182 176 175 186 196 201 209 225 235 240 243 246 249 252 258 265 271 275 279 282 284 289 291 290 288 287 286 289 290 290 292 292 294 295 299 306 308 314 317 315 314 315 315 313 310 307 305 301 295 288
153 161 167 173 177 178 190 193 200 210 219 226 233 242 251 258 264 267 271 277 283 287 290 291 290 287 284 279 279 282 286 289 292 296 294 295 293 292 289 291 302 311 313 314 315 316 316 319 322 325 329 328 323 314
160 165 173 180 188 198 202 204 213 226 239 252 261 266 270 274 279 285 288 290 293 293 289 292 294 292 287 283 281 282 285 288 292 295 297 300 302 295 295 304 310 312 313 316 319 323 333 340 345 357 1 4 10 11
168 170 175 181 191 203 216 232 249 259 268 275 279 283 285 284 284 286 288 289 291 292 292 292 292 292 295 298 298 294 288 288 289 289 294 302 305 304 314 317 317 319 323 327 335 349 2 1 360 3 24 34 41 45
193 203 214 228 234 243 256 267 273 278 280 280 279 278 284 294 295 289 291 292 291 288 291 297 296 294 296 297 295 292 291 289 290 310 317 312 322 327 327 332 338 344 351 0 6 18 12 7 4 1 12 25 33 39